Showing default

NVS-02, 62850

Orbit data source: Space-Track

NVS-02, 62850 is a payload satellite owned by ISRO (IN) in HEO that was launched on Wed, 29 Jan 2025 UTC via a GSLV MK II launch vehicle from the Sirharikota (SRI). Payload-class satellites include a variety of spacecraft equipped with specific instruments for various scientific and technological missions. These include communications satellites like Starlink; space stations such as the ISS; scientific satellites like the Hubble; Earth observation satellites from companies like Planet Labs, Umbra, and HawkEye 360; GPS; miniature CubeSats for education and research; and military/defense satellites.

Loading next visibility...
Identifier
62850, 2025-020A
Orbit
HEO
Last TLE update
1 week ago
Origin
Manufacturer
ISRO
Mission
Partially operational Civil Navigation
Bus & Motor
I2K, ISRO LAM
Mass
2,232 kg wet, ~1,000 kg dry
Launch date (UTC)
2025-01-29 (5 months ago)
Launch vehicle
GSLV MK II
Launch site
Sirharikota (SRI)
Object type
Payload
Rocket body
Debris
Shape & HBR
Box + 2 Pan, 9.5 m
Radar Cross Section
8.526 m², Large (>1 m²)

Expand to show TLE details & history

TLE from 1 week ago
0 NVS-02
1 62850U 25020A   25179.16416555  .00000692  00000-0  40798-3 0  9995
2 62850  21.1445  28.3232 7363228 276.7611  11.9277  2.17244295  3276
Epoch: 2025-06-28T03:56Z
TLE epoch observation values (Epoch: 2025-06-28T03:56:23.903Z)
Latitude
-0.00053°
Longitude
52.77362°
Altitude
4,225.999 km
Speed
7.703 km/s
True Right ascension
01h 53m 31s
True Declination
0° 00' 02"
Sunlit
Object was in daylight at epoch
Visualization orbit readout
Latitude
20.99473°
Longitude
147.57108°
Altitude
36,972.792 km
Speed
1.6 km/s
Apparent Right ascension
08h 34m 23s
Apparent Declination
17° 05' 20"
Sunlit
Object is in daylight
Visualization observer readout
Local Sidereal Time
05:09:04
Azimuth
101.941° ESE
Elevation
40.287°
Doppler factor
1
Orbital elements
Apogee altitude
37,355.14 km
Perigee altitude
263.179 km
Semi-major axis
25,187.296 km
Eccentricity
0.73632
Inclination
21.1445°
RAAN
28.3232°
Arg. of periapsis
276.7611°
True anomaly
Unknown
Mean anomaly
11.9277°
Eccentric anomaly
Unknown
Mean motion
0.54296 °/min
Orbital period
663.03 mins
BSTAR
0.00040798
Loading maneuver chart data...
Loading SW <> Apogee altitude chart data...
Loading historical data...
Loading historical data...
Loading historical data...
Loading historical data...
Loading historical data...
Loading historical data...
Loading historical data...
Other satellites on launch #20 in the year 2025 (2025-01-29 UTC)

NVS-02 Visibility forecast

Observer location: undefined°, undefined°

Span
Click to sort rows by Start time (UTC) header in descending order
Start Az.
Max El. time (UTC)
Max El. Az.
Max El.
End time (UTC)
End Az.
331 mins2025-07-05 17:13:44.136Z101.961° ESE2025-07-05 20:27:44.136Z129.117° SE38.652°2025-07-05 22:44:44.136Z125.107° SE
189 mins2025-07-06 14:04:44.136Z78.142° E2025-07-06 17:13:44.136Z92.963° ESE24.552°2025-07-06 17:13:44.136Z92.963° ESE
|